[[{"header":{"parameterUnit":"m.s-1","parameterCategory":1,"la1":30.2991,"la2":30.254,"lo1":-89.0895,"lo2":-89.0444,"dy":0.0017,"dx":0.0017,"nx":28,"ny":28,"refTime":"2024-06-03T03:00:00:Z","depth":0,"parameterNumber":2,"parameterNumberName":"U-component_of_WINDS"},"data":[0,0,0,0,0,0,0,0,0,0,0,0,0,0,0,0,0,0,0,0,0,0,0,0,0,0,0,0,0,0,0,0,0,0,0,0,0,0,0,0,0,0,0,0,0,0,0,0,0,0,0,0,0,0,0,0,0,0,-1.0334,-1.0333,0,-1.0317,-1.0317,-1.0317,-1.0286,-1.0286,-1.0285,-1.0284,-1.0269,-1.027,-1.027,0,0,0,0,0,0,0,0,0,0,0,0,0,-1.0341,-1.0341,-1.0334,-1.0333,-1.0333,-1.0317,-1.0317,-1.0317,-1.0286,-1.0285,-1.0285,-1.0284,-1.0269,-1.027,-1.027,0,0,0,0,0,0,0,0,0,0,0,0,0,-1.0332,-1.0341,-1.0334,-1.0316,-1.0314,-1.0317,-1.0317,-1.0317,-1.0286,-1.0285,-1.0285,-1.0284,-1.0269,-1.027,-1.027,-1.0289,0,0,-1.0271,-1.0271,0,0,0,0,0,0,0,0,-1.0333,-1.0332,-1.0319,-1.0317,-1.0315,-1.0303,-1.0314,-1.0308,-1.0287,-1.0297,-1.0284,-1.0283,-1.0281,-1.0281,-1.0279,-1.0289,-1.0288,-1.0271,-1.0271,-1.0271,-1.0271,0,0,0,0,0,0,0,-1.0333,-1.0333,-1.0327,-1.0319,-1.0316,-1.031,-1.0307,-1.0313,-1.0295,-1.0296,-1.0294,-1.0292,-1.028,-1.0279,-1.0279,-1.0288,-1.0271,-1.0271,-1.0271,-1.0271,-1.0312,-1.0313,0,0,0,0,0,0,-1.0336,-1.0333,-1.0328,-1.0327,-1.0322,-1.031,-1.0308,-1.0308,-1.0294,-1.0291,-1.0293,-1.0291,-1.0279,-1.0279,-1.0278,-1.03,-1.0271,-1.0271,-1.0271,-1.0311,-1.0312,-1.0313,0,0,0,0,0,0,-1.0337,-1.0336,-1.0328,-1.0329,-1.0328,-1.0311,-1.0311,-1.0308,-1.0307,-1.0292,-1.0289,-1.0295,-1.0279,-1.0278,-1.0287,-1.0299,-1.0271,-1.0271,-1.031,-1.0312,-1.0313,-1.0344,0,0,0,0,0,0,-1.0337,-1.0336,-1.0343,-1.033,-1.0328,-1.0336,-1.0312,-1.0308,-1.0307,-1.0304,-1.0293,-1.0291,-1.0278,-1.0286,-1.0287,-1.0299,-1.0272,-1.0309,-1.0311,-1.0313,-1.0342,-1.0346,-1.035,0,0,0,0,0,-1.0337,-1.0353,-1.0344,-1.0343,-1.0336,-1.0337,-1.0336,-1.0321,-1.0308,-1.0315,-1.0306,-1.0291,-1.0298,-1.0288,-1.0288,-1.03,-1.0308,-1.031,-1.0312,-1.034,-1.0345,-1.035,0,0,0,0,0,0,-1.0369,-1.0351,-1.034,-1.0352,-1.0346,-1.0332,-1.034,-1.0327,-1.0325,-1.0323,-1.0304,-1.0302,-1.0313,-1.0308,-1.0297,-1.0318,-1.0301,-1.0303,-1.0321,-1.0327,-1.0331,-1.0331,-1.0272,0,0,0,0,0,-1.0377,-1.0379,-1.0363,-1.0375,-1.0373,-1.0357,-1.0357,-1.0346,-1.0339,-1.0337,-1.0328,-1.0323,-1.0324,-1.0325,-1.0325,-1.0341,-1.0338,-1.035,-1.0354,-1.0357,-1.0359,-1.0367,-1.0372,-1.0321,-1.032,-1.032,0,0,-1.0394,-1.0384,-1.0387,-1.0381,-1.0375,-1.0378,-1.0355,-1.0359,-1.0362,-1.0338,-1.0345,-1.0339,-1.0332,-1.0344,-1.0349,-1.034,-1.0373,-1.036,-1.0363,-1.0363,-1.037,-1.0375,-1.0379,-1.0322,-1.0322,-1.0321,0,0,-1.0426,-1.0419,-1.0428,-1.0423,-1.0414,-1.0404,-1.0406,-1.0394,-1.0388,-1.0396,-1.0378,-1.0381,-1.0383,-1.0379,-1.0377,-1.0409,-1.0395,-1.0409,-1.0431,-1.0439,-1.0443,-1.0446,-1.0457,-1.0462,-1.0411,-1.0412,-1.0412,0,-1.0449,-1.0452,-1.0435,-1.044,-1.0438,-1.0416,-1.0425,-1.0421,-1.0414,-1.0413,-1.0403,-1.0405,-1.0399,-1.041,-1.0418,-1.0417,-1.042,-1.041,-1.0444,-1.0447,-1.045,-1.046,-1.0464,-1.0413,-1.0413,-1.0413,-1.0413,0,-1.048,-1.0482,-1.049,-1.0483,-1.0482,-1.0489,-1.0474,-1.0475,-1.0464,-1.0455,-1.0463,-1.0455,-1.0453,-1.0455,-1.0445,-1.0465,-1.0459,-1.0447,-1.0428,-1.0457,-1.0466,-1.047,-1.0416,-1.0415,-1.0415,-1.0414,0,0,-1.0531,-1.0513,-1.0517,-1.0513,-1.0502,-1.0504,-1.0511,-1.0508,-1.051,-1.0506,-1.0511,-1.0514,-1.0502,-1.05,-1.0489,-1.0496,-1.0521,-1.0482,-1.0482,-1.0489,-1.0543,-1.0552,-1.0557,-1.0513,-1.0513,-1.0514,-1.0543,0,-1.056,-1.057,-1.0555,-1.0568,-1.057,-1.055,-1.0555,-1.055,-1.0542,-1.0543,-1.0535,-1.0537,-1.0521,-1.052,-1.0526,-1.0517,-1.0532,-1.0515,-1.0517,-1.0518,-1.0519,-1.0562,-1.0572,-1.06,-1.0547,-1.0548,-1.0548,0,-1.0596,-1.0593,-1.0606,-1.0594,-1.0595,-1.06,-1.0597,-1.0598,-1.0592,-1.0585,-1.0583,-1.057,-1.0577,-1.0559,-1.0568,-1.0557,-1.0557,-1.0553,-1.0554,-1.0553,-1.0534,-1.0562,-1.0608,-1.0613,-1.0554,-1.0553,-1.0553,0,-1.0632,-1.0631,-1.0638,-1.0636,-1.0623,-1.0627,-1.0622,-1.0614,-1.0614,-1.0611,-1.0611,-1.061,-1.0609,-1.0608,-1.0596,-1.0584,-1.0606,-1.0588,-1.0601,-1.0601,-1.0606,-1.0606,-1.0653,-1.0607,-1.0607,-1.0607,-1.0607,0,-1.0666,-1.0675,-1.0654,-1.0659,-1.0668,-1.0651,-1.0661,-1.0654,-1.0648,-1.0651,-1.0634,-1.0638,-1.0621,-1.0623,-1.0613,-1.0622,-1.0622,-1.0617,-1.0614,-1.0618,-1.0619,-1.0618,-1.0616,-1.0608,-1.0608,-1.0608,-1.0608,0,-1.0707,-1.0694,-1.07,-1.0687,-1.0684,-1.0692,-1.0681,-1.0685,-1.0676,-1.068,-1.0681,-1.0667,-1.0668,-1.0655,-1.0655,-1.0648,-1.0662,-1.0656,-1.0664,-1.0661,-1.0675,-1.0674,-1.0723,-1.0729,-1.068,-1.0681,-1.0681,0,-1.073,-1.0736,-1.0723,-1.0724,-1.0719,-1.0721,-1.072,-1.0704,-1.0704,-1.0698,-1.0703,-1.0703,-1.0702,-1.0706,-1.0696,-1.0696,-1.0689,-1.0706,-1.0689,-1.0693,-1.0689,-1.0689,-1.0689,-1.071,-1.0711,-1.0711,-1.0712,0,-1.0772,-1.0765,-1.0764,-1.0761,-1.076,-1.0757,-1.0753,-1.0755,-1.0738,-1.0739,-1.074,-1.0739,-1.0738,-1.0739,-1.0736,-1.0732,-1.0719,-1.0717,-1.072,-1.0724,-1.0728,-1.0726,-1.0673,-1.0716,-1.0716,-1.0715,-1.0715,-1.0715,-1.0804,-1.0809,-1.08,-1.08,-1.0795,-1.0792,-1.0795,-1.0786,-1.0786,-1.0784,-1.0775,-1.0777,-1.0771,-1.0766,-1.0763,-1.0766,-1.0757,-1.0762,-1.0763,-1.0764,-1.0766,-1.0728,-1.0765,-1.0765,-1.0765,-1.0765,-1.0765,0,-1.0845,-1.0838,-1.0838,-1.0833,-1.0833,-1.082,-1.0815,-1.0816,-1.0818,-1.0813,-1.0812,-1.0814,-1.0814,-1.0805,-1.0804,-1.0808,-1.0802,-1.0808,-1.0807,-1.0806,-1.0774,-1.0771,-1.0813,-1.0813,-1.0813,-1.0813,-1.0813,-1.0813,-1.0866,-1.0873,-1.0865,-1.0869,-1.0863,-1.0864,-1.0863,-1.086,-1.0855,-1.0857,-1.0857,-1.0851,-1.0844,-1.0843,-1.0843,-1.084,-1.084,-1.0848,-1.0844,-1.0813,-1.0809,-1.0804,-1.0802,-1.0849,-1.0849,-1.0876,-1.0876,-1.0876]},{"header":{"parameterUnit":"m.s-1","parameterCategory":1,"la1":30.2991,"la2":30.254,"lo1":-89.0895,"lo2":-89.0444,"dy":0.0017,"dx":0.0017,"nx":28,"ny":28,"refTime":"2024-06-03T03:00:00:Z","depth":0,"parameterNumber":3,"parameterNumberName":"V-component_of_WINDS"},"data":[0,0,0,0,0,0,0,0,0,0,0,0,0,0,0,0,0,0,0,0,0,0,0,0,0,0,0,0,0,0,0,0,0,0,0,0,0,0,0,0,0,0,0,0,0,0,0,0,0,0,0,0,0,0,0,0,0,0,5.0327,5.0328,0,5.0335,5.0335,5.0335,5.0337,5.0337,5.0337,5.0337,5.0343,5.0343,5.0343,0,0,0,0,0,0,0,0,0,0,0,0,0,5.0314,5.0314,5.0327,5.0328,5.0328,5.0335,5.0335,5.0335,5.0337,5.0337,5.0337,5.0337,5.0343,5.0343,5.0343,0,0,0,0,0,0,0,0,0,0,0,0,0,5.032,5.0314,5.0327,5.0329,5.033,5.0335,5.0335,5.0335,5.0337,5.0337,5.0337,5.0337,5.0343,5.0343,5.0343,5.0346,0,0,5.0344,5.0344,0,0,0,0,0,0,0,0,5.032,5.0321,5.0329,5.0329,5.033,5.0335,5.0332,5.0339,5.0337,5.0334,5.0337,5.0337,5.034,5.0341,5.0342,5.0347,5.0347,5.0344,5.0344,5.0344,5.0345,0,0,0,0,0,0,0,5.0319,5.032,5.033,5.0329,5.033,5.033,5.0331,5.0334,5.0337,5.0334,5.0335,5.0336,5.034,5.0342,5.0342,5.0347,5.0344,5.0344,5.0345,5.0345,5.0355,5.0355,0,0,0,0,0,0,5.0319,5.032,5.033,5.0331,5.0325,5.033,5.0331,5.0333,5.0337,5.0338,5.0336,5.0336,5.0341,5.0342,5.0342,5.0347,5.0344,5.0345,5.0345,5.0355,5.0355,5.0355,0,0,0,0,0,0,5.0319,5.032,5.033,5.0325,5.0327,5.033,5.0333,5.0333,5.0335,5.0338,5.0339,5.0337,5.0341,5.0342,5.0346,5.0347,5.0345,5.0345,5.0355,5.0355,5.0355,5.0356,0,0,0,0,0,0,5.0318,5.032,5.0321,5.0325,5.0327,5.0333,5.0333,5.0334,5.0336,5.0336,5.0339,5.034,5.0341,5.0345,5.0346,5.0348,5.0345,5.0355,5.0355,5.0355,5.0356,5.0356,5.0356,0,0,0,0,0,5.0318,5.032,5.0321,5.0322,5.0329,5.0333,5.0334,5.0336,5.0336,5.0337,5.0339,5.034,5.0347,5.0346,5.0346,5.0348,5.0355,5.0355,5.0355,5.0356,5.0356,5.0356,0,0,0,0,0,0,5.0315,5.0321,5.0322,5.0326,5.0329,5.0334,5.0335,5.0336,5.0339,5.0339,5.0341,5.0342,5.0346,5.0347,5.0346,5.0352,5.0351,5.0351,5.0351,5.0351,5.0351,5.0351,5.0346,0,0,0,0,0,5.0315,5.0318,5.0323,5.0326,5.0328,5.0331,5.0333,5.0335,5.0338,5.0339,5.0342,5.0345,5.0348,5.0349,5.0352,5.0356,5.0357,5.0358,5.0358,5.0358,5.0358,5.0361,5.0362,5.0356,5.0356,5.0356,0,0,5.0314,5.0318,5.032,5.0326,5.0329,5.0332,5.0332,5.0336,5.0339,5.034,5.0344,5.0346,5.0349,5.0353,5.0355,5.0354,5.036,5.0358,5.0359,5.0359,5.0362,5.0362,5.0363,5.0356,5.0356,5.0356,0,0,5.0316,5.0319,5.0322,5.0326,5.033,5.0333,5.0333,5.0338,5.034,5.0344,5.0345,5.0348,5.0353,5.0355,5.0357,5.0361,5.0362,5.0362,5.0363,5.0366,5.0367,5.0367,5.0369,5.037,5.0362,5.0362,5.0362,0,5.0315,5.0321,5.0324,5.0328,5.033,5.0333,5.0336,5.0339,5.0344,5.0346,5.0345,5.0352,5.0354,5.0359,5.0361,5.0362,5.0363,5.0361,5.0366,5.0367,5.0367,5.0369,5.037,5.0362,5.0362,5.0362,5.0362,0,5.0319,5.0324,5.0326,5.0332,5.0335,5.0338,5.0342,5.0344,5.0346,5.0348,5.0353,5.0356,5.036,5.0361,5.0362,5.0367,5.0366,5.0366,5.0365,5.0368,5.037,5.037,5.0362,5.0362,5.0362,5.0362,0,0,5.0318,5.0327,5.0328,5.0331,5.0337,5.034,5.0344,5.0349,5.0351,5.0355,5.0358,5.0363,5.0363,5.0365,5.0367,5.0369,5.0373,5.0369,5.0369,5.037,5.0379,5.0379,5.038,5.0373,5.0373,5.0374,5.0379,0,5.0321,5.0329,5.0333,5.0339,5.0343,5.0346,5.0349,5.0353,5.0356,5.0359,5.0362,5.0365,5.0365,5.0367,5.0369,5.0372,5.0375,5.0371,5.0377,5.0377,5.0376,5.0381,5.0381,5.0386,5.0379,5.0379,5.0379,0,5.0325,5.033,5.0337,5.0343,5.0345,5.0348,5.0353,5.0357,5.0361,5.0363,5.0366,5.0368,5.0372,5.0371,5.0377,5.0375,5.0377,5.0379,5.0379,5.038,5.0378,5.0382,5.0387,5.0388,5.038,5.038,5.038,0,5.0324,5.0332,5.0338,5.034,5.0348,5.035,5.0353,5.0358,5.0361,5.0365,5.0367,5.0372,5.0374,5.0377,5.038,5.0379,5.0386,5.0385,5.0388,5.0388,5.0389,5.0389,5.0395,5.039,5.039,5.039,5.039,0,5.0327,5.0331,5.0338,5.0341,5.0346,5.035,5.0355,5.0358,5.0363,5.0367,5.0369,5.0372,5.0376,5.038,5.0382,5.0387,5.0388,5.039,5.039,5.039,5.0389,5.0391,5.0391,5.039,5.039,5.039,5.039,0,5.0327,5.0332,5.0338,5.0345,5.0347,5.035,5.0356,5.036,5.0363,5.0368,5.0369,5.0374,5.0379,5.0382,5.0388,5.039,5.0396,5.0396,5.0394,5.0395,5.0398,5.0397,5.0405,5.0407,5.04,5.04,5.04,0,5.0328,5.0332,5.034,5.0343,5.0347,5.0352,5.0355,5.0359,5.0363,5.0369,5.0372,5.0377,5.0382,5.039,5.0393,5.0398,5.0399,5.0401,5.0399,5.0399,5.04,5.04,5.04,5.0402,5.0402,5.0402,5.0402,0,5.033,5.0333,5.0338,5.0345,5.035,5.0355,5.036,5.0362,5.0367,5.0371,5.0377,5.038,5.0387,5.0393,5.0398,5.0401,5.0402,5.0402,5.0403,5.0403,5.0402,5.0403,5.0396,5.0402,5.0402,5.0402,5.0402,5.0402,5.0332,5.0335,5.0342,5.0348,5.0353,5.0358,5.0362,5.0366,5.0371,5.0378,5.038,5.0386,5.0391,5.0399,5.0402,5.0407,5.0406,5.0408,5.0408,5.0408,5.0409,5.0401,5.0407,5.0407,5.0407,5.0407,5.0407,0,5.0334,5.0339,5.0345,5.0353,5.0358,5.036,5.0366,5.037,5.0375,5.038,5.0385,5.0392,5.0398,5.0403,5.0408,5.0411,5.0412,5.0413,5.0413,5.0413,5.0408,5.0407,5.0412,5.0412,5.0412,5.0412,5.0412,5.0412,5.0337,5.0343,5.0347,5.0356,5.0361,5.0368,5.0371,5.0376,5.038,5.0388,5.0393,5.0397,5.0402,5.0408,5.0413,5.0415,5.0417,5.0417,5.0419,5.0414,5.0414,5.0413,5.0412,5.0418,5.0418,5.0424,5.0424,5.0424]}]]